RH
50 46 42 41 40 39 42 38 36 37 35 40 40 43 40 43 45 44 43 43 46 56 58 61 64 60 57
54 54 55 56 60 55 42 40 41 41 39 40 42 44 46 49 46 46 42 44 55 58 61 66 61 57 56
58 61 64 63 53 43 46 50 48 38 44 50 53 51 53 50 49 49 51 62 63 63 66 63 59 57 52
72 68 66 55 45 45 50 50 46 50 55 53 48 51 51 51 54 54 60 62 64 66 63 61 59 54 45
73 69 55 48 55 57 50 52 54 53 51 53 57 59 59 60 62 63 63 64 65 64 60 59 57 47 38
63 58 59 52 50 56 57 55 47 54 55 61 65 73 78 74 63 64 64 64 65 61 60 57 50 42 32
72 68 57 47 53 58 52 54 58 57 63 67 71 77 67 61 67 64 64 65 61 60 58 53 44 35 28
81 72 58 54 54 54 56 61 58 60 62 68 76 71 60 67 63 64 65 62 62 60 56 45 36 30 23
88 74 63 59 58 57 64 65 58 58 62 66 68 60 60 65 65 67 65 66 63 59 47 39 31 24 21
82 72 62 54 56 61 58 59 61 62 65 68 64 61 65 69 71 68 68 69 63 52 43 33 26 20 19
84 76 65 58 55 57 51 55 60 60 65 67 64 64 68 70 73 69 70 68 56 46 37 31 22 18 14
82 77 71 61 56 58 57 56 64 67 71 69 66 67 69 73 73 71 73 63 49 40 34 26 21 17 13
77 70 66 64 62 63 65 66 67 73 70 66 67 66 72 75 73 75 70 53 46 36 28 22 18 14 11
80 79 77 74 68 64 65 69 68 73 65 66 68 70 73 76 74 74 59 50 40 32 25 20 16 12 9
85 81 81 78 72 71 67 70 72 69 68 68 66 73 78 77 77 64 53 44 36 29 24 18 14 11 9
87 87 83 80 72 73 71 74 69 66 66 65 71 74 78 81 72 59 50 40 32 26 21 16 13 10 9
87 85 88 81 76 79 76 67 64 64 67 71 76 76 81 82 68 56 43 37 30 23 19 15 11 11 10